Location: ????????
(55.4000°N, 39.1167°E)
Time: 14:28:57
(UTC+00:00)

NPP - Pass Details

Date: 19 May 2025
Orbit: 826 x 827 km, 98.8° (Epoch: 20 June)

Event Time Altitude Azimuth Distance (km) Brightness Sun altitude
Rises 23:29:32 0° 16° (NNE) 3,382 8.6 -9.8°
Reaches altitude 10° 23:31:53 10° 17° (NNE) 2,444 7.6 -9.6°
Maximum altitude 23:37:19 85° 106° (ESE) 838 3.7 -9.2°
Drops below altitude 10° 23:42:43 10° 196° (SSW) 2,428 5.5 -8.8°
Enters shadow 23:42:50 - 196° (SSW) 2,470 5.5 -8.7°
